Year,Month,Day,Hour,Minute,Value (Times are PST for temperature in C)
2015,07,22,00,00,16.40
2015,07,22,00,01,16.40
2015,07,22,00,02,16.40
2015,07,22,00,03,16.30
2015,07,22,00,04,16.30
2015,07,22,00,05,16.30
2015,07,22,00,06,16.30
2015,07,22,00,07,16.20
2015,07,22,00,08,16.20
2015,07,22,00,09,16.20
2015,07,22,00,10,16.20
2015,07,22,00,11,16.20
2015,07,22,00,12,16.20
2015,07,22,00,13,16.20
2015,07,22,00,14,16.20
2015,07,22,00,15,16.20
2015,07,22,00,16,16.20
2015,07,22,00,17,16.10
2015,07,22,00,18,16.10
2015,07,22,00,19,16.10
2015,07,22,00,20,16.10
2015,07,22,00,21,16.10
2015,07,22,00,22,16.00
2015,07,22,00,23,16.00
2015,07,22,00,24,16.00
2015,07,22,00,25,16.00
2015,07,22,00,26,16.00
2015,07,22,00,27,15.90
2015,07,22,00,28,15.90
2015,07,22,00,29,15.90
2015,07,22,00,30,15.90
2015,07,22,00,31,15.90
2015,07,22,00,32,15.90
2015,07,22,00,33,15.90
2015,07,22,00,34,15.80
2015,07,22,00,35,15.80
2015,07,22,00,36,15.80
2015,07,22,00,37,15.80
2015,07,22,00,38,15.80
2015,07,22,00,39,15.80
2015,07,22,00,40,15.80
2015,07,22,00,41,15.80
2015,07,22,00,42,15.80
2015,07,22,00,43,15.80
2015,07,22,00,44,15.80
2015,07,22,00,45,15.80
2015,07,22,00,46,15.80
2015,07,22,00,47,15.70
2015,07,22,00,48,15.70
2015,07,22,00,49,15.70
2015,07,22,00,50,15.70
2015,07,22,00,51,15.70
2015,07,22,00,52,15.70
2015,07,22,00,53,15.70
2015,07,22,00,54,15.70
2015,07,22,00,55,15.70
2015,07,22,00,56,15.70
2015,07,22,00,57,15.60
2015,07,22,00,58,15.60
2015,07,22,00,59,15.60
2015,07,22,01,00,15.60
2015,07,22,01,01,15.60
2015,07,22,01,02,15.60
2015,07,22,01,03,15.60
2015,07,22,01,04,15.50
2015,07,22,01,05,15.50
2015,07,22,01,06,15.50
2015,07,22,01,07,15.50
2015,07,22,01,08,15.40
2015,07,22,01,09,15.50
2015,07,22,01,10,15.50
2015,07,22,01,11,15.50
2015,07,22,01,12,15.60
2015,07,22,01,13,15.60
2015,07,22,01,14,15.60
2015,07,22,01,15,15.60
2015,07,22,01,16,15.60
2015,07,22,01,17,15.60
2015,07,22,01,18,15.60
2015,07,22,01,19,15.60
2015,07,22,01,20,15.60
2015,07,22,01,21,15.60
2015,07,22,01,22,15.60
2015,07,22,01,23,15.50
2015,07,22,01,24,15.50
2015,07,22,01,25,15.50
2015,07,22,01,26,15.50
2015,07,22,01,27,15.50
2015,07,22,01,28,15.50
2015,07,22,01,29,15.40
2015,07,22,01,30,15.40
2015,07,22,01,31,15.40
2015,07,22,01,32,15.40
2015,07,22,01,33,15.40
2015,07,22,01,34,15.40
2015,07,22,01,35,15.40
2015,07,22,01,36,15.40
2015,07,22,01,37,15.40
2015,07,22,01,38,15.40
2015,07,22,01,39,15.40
2015,07,22,01,40,15.30
2015,07,22,01,41,15.30
2015,07,22,01,42,15.30
2015,07,22,01,43,15.30
2015,07,22,01,44,15.30
2015,07,22,01,45,15.30
2015,07,22,01,46,15.30
2015,07,22,01,47,15.30
2015,07,22,01,48,15.20
2015,07,22,01,49,15.20
2015,07,22,01,50,15.20
2015,07,22,01,51,15.20
2015,07,22,01,52,15.10
2015,07,22,01,53,15.10
2015,07,22,01,54,15.10
2015,07,22,01,55,15.10
2015,07,22,01,56,15.00
2015,07,22,01,57,15.00
2015,07,22,01,58,14.90
2015,07,22,01,59,14.90
2015,07,22,02,00,14.90
2015,07,22,02,01,14.90
2015,07,22,02,02,15.00
2015,07,22,02,03,15.00
2015,07,22,02,04,14.90
2015,07,22,02,05,14.90
2015,07,22,02,06,14.90
2015,07,22,02,07,14.90
2015,07,22,02,08,14.80
2015,07,22,02,09,14.80
2015,07,22,02,10,14.80
2015,07,22,02,11,14.80
2015,07,22,02,12,14.80
2015,07,22,02,13,14.80
2015,07,22,02,14,14.70
2015,07,22,02,15,14.70
2015,07,22,02,16,14.70
2015,07,22,02,17,14.60
2015,07,22,02,18,14.50
2015,07,22,02,19,14.50
2015,07,22,02,20,14.50
2015,07,22,02,21,14.40
2015,07,22,02,22,14.40
2015,07,22,02,23,14.40
2015,07,22,02,24,14.40
2015,07,22,02,25,14.30
2015,07,22,02,26,14.30
2015,07,22,02,27,14.30
2015,07,22,02,28,14.30
2015,07,22,02,29,14.30
2015,07,22,02,30,14.30
2015,07,22,02,31,14.30
2015,07,22,02,32,14.30
2015,07,22,02,33,14.30
2015,07,22,02,34,14.30
2015,07,22,02,35,14.20
2015,07,22,02,36,14.20
2015,07,22,02,37,14.20
2015,07,22,02,38,14.20
2015,07,22,02,39,14.20
2015,07,22,02,40,14.20
2015,07,22,02,41,14.20
2015,07,22,02,42,14.20
2015,07,22,02,43,14.20
2015,07,22,02,44,14.20
2015,07,22,02,45,14.20
2015,07,22,02,46,14.20
2015,07,22,02,47,14.20
2015,07,22,02,48,14.20
2015,07,22,02,49,14.20
2015,07,22,02,50,14.20
2015,07,22,02,51,14.20
2015,07,22,02,52,14.20
2015,07,22,02,53,14.20
2015,07,22,02,54,14.20
2015,07,22,02,55,14.20
2015,07,22,02,56,14.20
2015,07,22,02,57,14.20
2015,07,22,02,58,14.20
2015,07,22,02,59,14.10
2015,07,22,03,00,14.10
2015,07,22,03,01,14.10
2015,07,22,03,02,14.10
2015,07,22,03,03,14.10
2015,07,22,03,04,14.00
2015,07,22,03,05,14.00
2015,07,22,03,06,14.00
2015,07,22,03,07,14.00
2015,07,22,03,08,13.90
2015,07,22,03,09,13.90
2015,07,22,03,10,13.90
2015,07,22,03,11,13.90
2015,07,22,03,12,13.90
2015,07,22,03,13,13.90
2015,07,22,03,14,13.90
2015,07,22,03,15,13.90
2015,07,22,03,16,13.90
2015,07,22,03,17,14.00
2015,07,22,03,18,14.00
2015,07,22,03,19,14.00
2015,07,22,03,20,14.00
2015,07,22,03,21,14.00
2015,07,22,03,22,14.00
2015,07,22,03,23,14.00
2015,07,22,03,24,13.90
2015,07,22,03,25,13.90
2015,07,22,03,26,13.90
2015,07,22,03,27,13.90
2015,07,22,03,28,13.90
2015,07,22,03,29,13.90
2015,07,22,03,30,13.90
2015,07,22,03,31,13.90
2015,07,22,03,32,13.90
2015,07,22,03,33,13.90
2015,07,22,03,34,13.90
2015,07,22,03,35,13.90
2015,07,22,03,36,13.90
2015,07,22,03,37,13.90
2015,07,22,03,38,13.90
2015,07,22,03,39,13.90
2015,07,22,03,40,13.90
2015,07,22,03,41,13.90
2015,07,22,03,42,13.90
2015,07,22,03,43,13.90
2015,07,22,03,44,13.90
2015,07,22,03,45,13.90
2015,07,22,03,46,14.00
2015,07,22,03,47,13.90
2015,07,22,03,48,13.90
2015,07,22,03,49,13.90
2015,07,22,03,50,13.90
2015,07,22,03,51,13.90
2015,07,22,03,52,13.90
2015,07,22,03,53,13.90
2015,07,22,03,54,13.80
2015,07,22,03,55,13.80
2015,07,22,03,56,13.80
2015,07,22,03,57,13.80
2015,07,22,03,58,13.70
2015,07,22,03,59,13.70
2015,07,22,04,00,13.70
2015,07,22,04,01,13.70
2015,07,22,04,02,13.60
2015,07,22,04,03,13.60
2015,07,22,05,02,13.60
2015,07,22,05,03,13.60
2015,07,22,05,04,13.60
2015,07,22,05,05,13.60
2015,07,22,05,06,13.60
2015,07,22,05,07,13.50
2015,07,22,05,08,13.50
2015,07,22,05,09,13.50
2015,07,22,05,10,13.50
2015,07,22,05,11,13.40
2015,07,22,05,12,13.50
2015,07,22,05,13,13.50
2015,07,22,05,14,13.50
2015,07,22,05,15,13.50
2015,07,22,05,16,13.50
2015,07,22,05,17,13.50
2015,07,22,05,18,13.50
2015,07,22,05,19,13.50
2015,07,22,05,20,13.50
2015,07,22,05,21,13.40
2015,07,22,05,22,13.40
2015,07,22,05,23,13.40
2015,07,22,05,24,13.40
2015,07,22,05,25,13.40
2015,07,22,05,26,13.50
2015,07,22,05,27,13.50
2015,07,22,05,28,13.50
2015,07,22,05,29,13.50
2015,07,22,05,30,13.60
2015,07,22,05,31,13.50
2015,07,22,05,32,13.50
2015,07,22,05,33,13.60
2015,07,22,05,34,13.60
2015,07,22,05,35,13.60
2015,07,22,05,36,13.60
2015,07,22,05,37,13.60
2015,07,22,05,38,13.60
2015,07,22,05,39,13.60
2015,07,22,05,40,13.60
2015,07,22,05,41,13.60
2015,07,22,05,42,13.60
2015,07,22,05,43,13.70
2015,07,22,05,44,13.70
2015,07,22,05,45,13.70
2015,07,22,05,46,13.80
2015,07,22,05,47,13.70
2015,07,22,05,48,13.70
2015,07,22,05,49,13.70
2015,07,22,05,50,13.70
2015,07,22,05,51,13.70
2015,07,22,05,52,13.70
2015,07,22,05,53,13.70
2015,07,22,05,54,13.70
2015,07,22,05,55,13.70
2015,07,22,05,56,13.70
2015,07,22,05,57,13.70
2015,07,22,05,58,13.70
2015,07,22,05,59,13.70
2015,07,22,06,00,13.70
2015,07,22,06,01,13.70
2015,07,22,06,02,13.70
2015,07,22,06,03,13.70
2015,07,22,06,04,13.70
2015,07,22,06,05,13.70
2015,07,22,06,06,13.70
2015,07,22,06,07,13.70
2015,07,22,06,08,13.70
2015,07,22,06,09,13.70
2015,07,22,06,10,13.70
2015,07,22,06,11,13.70
2015,07,22,06,12,13.70
2015,07,22,06,13,13.70
2015,07,22,06,14,13.70
2015,07,22,06,15,13.70
2015,07,22,06,16,13.70
2015,07,22,06,17,13.70
2015,07,22,06,18,13.70
2015,07,22,06,19,13.60
2015,07,22,06,20,13.60
2015,07,22,06,21,13.60
2015,07,22,06,22,13.60
2015,07,22,06,23,13.60
2015,07,22,06,24,13.60
2015,07,22,06,25,13.60
2015,07,22,06,26,13.60
2015,07,22,06,27,13.60
2015,07,22,06,28,13.60
2015,07,22,06,29,13.60
2015,07,22,06,30,13.60
2015,07,22,06,31,13.60
2015,07,22,06,32,13.60
2015,07,22,06,33,13.60
2015,07,22,06,34,13.70
2015,07,22,06,35,13.70
2015,07,22,06,36,13.70
2015,07,22,06,37,13.70
2015,07,22,06,38,13.70
2015,07,22,06,39,13.70
2015,07,22,06,40,13.70
2015,07,22,06,41,13.80
2015,07,22,06,42,13.80
2015,07,22,06,43,13.80
2015,07,22,06,44,13.80
2015,07,22,06,45,13.80
2015,07,22,06,46,13.80
2015,07,22,06,47,13.90
2015,07,22,06,48,13.90
2015,07,22,06,49,13.90
2015,07,22,06,50,14.00
2015,07,22,06,51,14.10
2015,07,22,06,52,14.10
2015,07,22,06,53,14.20
2015,07,22,06,54,14.20
2015,07,22,06,55,14.30
2015,07,22,06,56,14.30
2015,07,22,06,57,14.30
2015,07,22,06,58,14.40
2015,07,22,06,59,14.40
2015,07,22,07,00,14.50
2015,07,22,07,01,14.60
2015,07,22,07,02,14.60
2015,07,22,07,03,14.70
2015,07,22,07,04,14.70
2015,07,22,07,05,14.70
2015,07,22,07,06,14.80
2015,07,22,07,07,14.80
2015,07,22,07,08,14.80
2015,07,22,07,09,14.90
2015,07,22,07,10,14.90
2015,07,22,07,11,15.00
2015,07,22,07,12,15.00
2015,07,22,07,13,15.00
2015,07,22,07,14,15.10
2015,07,22,07,15,15.10
2015,07,22,07,16,15.10
2015,07,22,07,17,15.10
2015,07,22,07,18,15.20
2015,07,22,07,19,15.20
2015,07,22,07,20,15.20
2015,07,22,07,21,15.20
2015,07,22,07,22,15.20
2015,07,22,07,23,15.20
2015,07,22,07,24,15.20
2015,07,22,07,25,15.20
2015,07,22,07,26,15.20
2015,07,22,07,27,15.30
2015,07,22,07,28,15.30
2015,07,22,07,29,15.30
2015,07,22,07,30,15.20
2015,07,22,07,31,15.20
2015,07,22,07,32,15.20
2015,07,22,07,33,15.20
2015,07,22,07,34,15.20
2015,07,22,07,35,15.20
2015,07,22,07,36,15.20
2015,07,22,07,37,15.30
2015,07,22,07,38,15.30
2015,07,22,07,39,15.30
2015,07,22,07,40,15.30
2015,07,22,07,41,15.30
2015,07,22,07,42,15.30
2015,07,22,07,43,15.30
2015,07,22,07,44,15.30
2015,07,22,07,45,15.30
2015,07,22,07,46,15.30
2015,07,22,07,47,15.30
2015,07,22,07,48,15.30
2015,07,22,07,49,15.30
2015,07,22,07,50,15.20
2015,07,22,07,51,15.30
2015,07,22,07,52,15.30
2015,07,22,07,53,15.30
2015,07,22,07,54,15.30
2015,07,22,07,55,15.30
2015,07,22,07,56,15.30
2015,07,22,07,57,15.30
2015,07,22,07,58,15.30
2015,07,22,07,59,15.30
2015,07,22,08,00,15.30
2015,07,22,08,01,15.30
2015,07,22,08,02,15.30
2015,07,22,08,03,15.40
2015,07,22,08,04,15.40
2015,07,22,08,05,15.40
2015,07,22,08,06,15.40
2015,07,22,08,07,15.40
2015,07,22,08,08,15.40
2015,07,22,08,09,15.50
2015,07,22,08,10,15.50
2015,07,22,08,11,15.50
2015,07,22,08,12,15.50
2015,07,22,08,13,15.60
2015,07,22,08,14,15.60
2015,07,22,08,15,15.70
2015,07,22,08,16,15.70
2015,07,22,08,17,15.70
2015,07,22,08,18,15.70
2015,07,22,08,19,15.70
2015,07,22,08,20,15.70
2015,07,22,08,21,15.70
2015,07,22,08,22,15.70
2015,07,22,08,23,15.70
2015,07,22,08,24,15.70
2015,07,22,08,25,15.80
2015,07,22,08,26,15.80
2015,07,22,08,27,15.80
2015,07,22,08,28,15.90
2015,07,22,08,29,15.90
2015,07,22,08,30,15.90
2015,07,22,08,31,15.90
2015,07,22,08,32,15.90
2015,07,22,08,33,15.90
2015,07,22,08,34,15.90
2015,07,22,08,35,15.90
2015,07,22,08,36,15.90
2015,07,22,08,37,15.90
2015,07,22,08,38,15.90
2015,07,22,08,39,15.90
2015,07,22,08,40,15.90
2015,07,22,08,41,16.00
2015,07,22,08,42,16.00
2015,07,22,08,43,16.00
2015,07,22,08,44,16.00
2015,07,22,08,45,16.00
2015,07,22,08,46,16.00
2015,07,22,08,47,16.00
2015,07,22,08,48,16.00
2015,07,22,08,49,16.00
2015,07,22,08,50,16.00
2015,07,22,08,51,16.00
2015,07,22,08,52,16.00
2015,07,22,08,53,16.00
2015,07,22,08,54,16.00
2015,07,22,08,55,16.00
2015,07,22,08,56,16.00
2015,07,22,08,57,16.00
2015,07,22,08,58,16.10
2015,07,22,08,59,16.10
2015,07,22,09,00,16.10
2015,07,22,09,01,16.10
2015,07,22,09,02,16.10
2015,07,22,09,03,16.00
2015,07,22,09,04,15.90
2015,07,22,09,05,15.80
2015,07,22,09,06,15.70
2015,07,22,09,07,15.60
2015,07,22,09,08,15.60
2015,07,22,09,09,15.60
2015,07,22,09,10,15.50
2015,07,22,09,11,15.60
2015,07,22,09,12,15.60
2015,07,22,09,13,15.60
2015,07,22,09,14,15.60
2015,07,22,09,15,15.60
2015,07,22,09,16,15.60
2015,07,22,09,17,15.60
2015,07,22,09,18,15.60
2015,07,22,09,19,15.70
2015,07,22,09,20,15.70
2015,07,22,09,21,15.70
2015,07,22,09,22,15.70
2015,07,22,09,23,15.70
2015,07,22,09,24,15.70
2015,07,22,09,25,15.80
2015,07,22,09,26,15.80
2015,07,22,09,27,15.80
2015,07,22,09,28,15.90
2015,07,22,09,29,16.00
2015,07,22,09,30,16.10
2015,07,22,09,31,16.20
2015,07,22,09,32,16.20
2015,07,22,09,33,16.30
2015,07,22,09,34,16.30
2015,07,22,09,35,16.40
2015,07,22,09,36,16.40
2015,07,22,09,37,16.50
2015,07,22,09,38,16.50
2015,07,22,09,39,16.50
2015,07,22,09,40,16.40
2015,07,22,09,41,16.40
2015,07,22,09,42,16.30
2015,07,22,09,43,16.20
2015,07,22,09,44,16.20
2015,07,22,09,45,16.20
2015,07,22,09,46,16.20
2015,07,22,09,47,16.20
2015,07,22,09,48,16.20
2015,07,22,09,49,16.30
2015,07,22,09,50,16.30
2015,07,22,09,51,16.30
2015,07,22,09,52,16.30
2015,07,22,09,53,16.40
2015,07,22,09,54,16.40
2015,07,22,09,55,16.50
2015,07,22,09,56,16.50
2015,07,22,09,57,16.50
2015,07,22,09,58,16.50
2015,07,22,09,59,16.40
2015,07,22,10,00,16.50
2015,07,22,10,01,16.50
2015,07,22,10,02,16.50
2015,07,22,10,03,16.60
2015,07,22,10,04,16.60
2015,07,22,10,05,16.70
2015,07,22,10,06,16.70
2015,07,22,10,07,16.80
2015,07,22,10,08,16.80
2015,07,22,10,09,16.80
2015,07,22,10,10,16.80
2015,07,22,10,11,16.80
2015,07,22,10,12,16.80
2015,07,22,10,13,16.80
2015,07,22,10,14,16.90
2015,07,22,10,15,16.90
2015,07,22,10,16,16.90
2015,07,22,10,17,16.90
2015,07,22,10,18,16.80
2015,07,22,10,19,16.80
2015,07,22,10,20,16.80
2015,07,22,10,21,16.80
2015,07,22,10,22,16.70
2015,07,22,10,23,16.70
2015,07,22,10,24,16.70
2015,07,22,10,25,16.70
2015,07,22,10,26,16.70
2015,07,22,10,27,16.70
2015,07,22,10,28,16.70
2015,07,22,10,29,16.70
2015,07,22,10,30,16.80
2015,07,22,10,31,16.80
2015,07,22,10,32,16.80
2015,07,22,10,33,16.80
2015,07,22,10,34,16.80
2015,07,22,10,35,16.80
2015,07,22,10,36,16.80
2015,07,22,10,37,16.70
2015,07,22,10,38,16.70
2015,07,22,10,39,16.70
2015,07,22,10,40,16.70
2015,07,22,10,41,16.80
2015,07,22,10,42,16.80
2015,07,22,10,43,16.90
2015,07,22,10,44,17.00
2015,07,22,10,45,17.00
2015,07,22,10,46,17.10
2015,07,22,10,47,17.10
2015,07,22,10,48,17.10
2015,07,22,10,49,17.20
2015,07,22,10,50,17.20
2015,07,22,10,51,17.20
2015,07,22,10,52,17.20
2015,07,22,10,53,17.30
2015,07,22,10,54,17.30
2015,07,22,10,55,17.30
2015,07,22,10,56,17.30
2015,07,22,10,57,17.20
2015,07,22,10,58,17.20
2015,07,22,10,59,17.20
2015,07,22,11,00,17.20
2015,07,22,11,01,17.20
2015,07,22,11,02,17.30
2015,07,22,11,03,17.30
2015,07,22,11,04,17.40
2015,07,22,11,05,17.40
2015,07,22,11,06,17.40
2015,07,22,11,07,17.30
2015,07,22,11,08,17.30
2015,07,22,11,09,17.30
2015,07,22,11,10,17.30
2015,07,22,11,11,17.30
2015,07,22,11,12,17.30
2015,07,22,11,13,17.30
2015,07,22,11,14,17.30
2015,07,22,11,15,17.20
2015,07,22,11,16,17.20
2015,07,22,11,17,17.20
2015,07,22,11,18,17.20
2015,07,22,11,19,17.30
2015,07,22,11,20,17.30
2015,07,22,11,21,17.30
2015,07,22,11,22,17.30
2015,07,22,11,23,17.30
2015,07,22,11,24,17.30
2015,07,22,11,25,17.30
2015,07,22,11,26,17.20
2015,07,22,11,27,17.20
2015,07,22,11,28,17.20
2015,07,22,11,29,17.20
2015,07,22,11,30,17.30
2015,07,22,11,31,17.30
2015,07,22,11,32,17.30
2015,07,22,11,33,17.30
2015,07,22,11,34,17.30
2015,07,22,11,35,17.30
2015,07,22,11,36,17.30
2015,07,22,11,37,17.30
2015,07,22,11,38,17.30
2015,07,22,11,39,17.30
2015,07,22,11,40,17.20
2015,07,22,11,41,17.20
2015,07,22,11,42,17.30
2015,07,22,11,43,17.30
2015,07,22,11,44,17.30
2015,07,22,11,45,17.30
2015,07,22,11,46,17.40
2015,07,22,11,47,17.30
2015,07,22,11,48,17.30
2015,07,22,11,49,17.30
2015,07,22,11,50,17.40
2015,07,22,11,51,17.40
2015,07,22,11,52,17.30
2015,07,22,11,53,17.30
2015,07,22,11,54,17.30
2015,07,22,11,55,17.30
2015,07,22,11,56,17.30
2015,07,22,11,57,17.20
2015,07,22,11,58,17.20
2015,07,22,11,59,17.20
2015,07,22,12,00,17.20
2015,07,22,12,01,17.20
2015,07,22,12,02,17.30
2015,07,22,12,03,17.30
2015,07,22,12,04,17.30
2015,07,22,12,05,17.30
2015,07,22,12,06,17.30
2015,07,22,12,07,17.30
2015,07,22,12,08,17.30
2015,07,22,12,09,17.30
2015,07,22,12,10,17.30
2015,07,22,12,11,17.40
2015,07,22,12,12,17.40
2015,07,22,12,13,17.40
2015,07,22,12,14,17.40
2015,07,22,12,15,17.40
2015,07,22,12,16,17.40
2015,07,22,12,17,17.40
2015,07,22,12,18,17.40
2015,07,22,12,19,17.30
2015,07,22,12,20,17.30
2015,07,22,12,21,17.30
2015,07,22,12,22,17.20
2015,07,22,12,23,17.20
2015,07,22,12,24,17.20
2015,07,22,12,25,17.30
2015,07,22,12,26,17.30
2015,07,22,12,27,17.30
2015,07,22,12,28,17.30
2015,07,22,12,29,17.20
2015,07,22,12,30,17.20
2015,07,22,12,31,17.20
2015,07,22,12,32,17.20
2015,07,22,12,33,17.20
2015,07,22,12,34,17.20
2015,07,22,12,35,17.20
2015,07,22,12,36,17.20
2015,07,22,12,37,17.20
2015,07,22,12,38,17.20
2015,07,22,12,39,17.20
2015,07,22,12,40,17.20
2015,07,22,12,41,17.20
2015,07,22,12,42,17.30
2015,07,22,12,43,17.30
2015,07,22,12,44,17.30
2015,07,22,12,45,17.30
2015,07,22,12,46,17.40
2015,07,22,12,47,17.40
2015,07,22,12,48,17.50
2015,07,22,12,49,17.50
2015,07,22,12,50,17.60
2015,07,22,12,51,17.70
2015,07,22,12,52,17.80
2015,07,22,12,53,17.80
2015,07,22,12,54,17.80
2015,07,22,12,55,17.80
2015,07,22,12,56,17.80
2015,07,22,12,57,17.80
2015,07,22,12,58,17.80
2015,07,22,12,59,17.80
2015,07,22,13,00,17.70
2015,07,22,13,01,17.70
2015,07,22,13,02,17.80
2015,07,22,13,03,17.80
2015,07,22,13,04,17.90
2015,07,22,13,05,17.90
2015,07,22,13,06,18.00
2015,07,22,13,07,18.00
2015,07,22,13,08,18.10
2015,07,22,13,09,18.10
2015,07,22,13,10,18.10
2015,07,22,13,11,18.00
2015,07,22,13,12,17.90
2015,07,22,13,13,17.80
2015,07,22,13,14,17.70
2015,07,22,13,15,17.70
2015,07,22,13,16,17.70
2015,07,22,13,17,17.70
2015,07,22,13,18,17.70
2015,07,22,13,19,17.80
2015,07,22,13,20,17.80
2015,07,22,13,21,17.70
2015,07,22,13,22,17.70
2015,07,22,13,23,17.70
2015,07,22,13,24,17.70
2015,07,22,13,25,17.80
2015,07,22,13,26,17.80
2015,07,22,13,27,17.80
2015,07,22,13,28,17.80
2015,07,22,13,29,17.80
2015,07,22,13,30,17.80
2015,07,22,13,31,17.80
2015,07,22,13,32,17.90
2015,07,22,13,33,17.90
2015,07,22,13,34,17.90
2015,07,22,13,35,17.90
2015,07,22,13,36,18.00
2015,07,22,13,37,18.10
2015,07,22,13,38,18.10
2015,07,22,13,39,18.20
2015,07,22,13,40,18.20
2015,07,22,13,41,18.30
2015,07,22,13,42,18.30
2015,07,22,13,43,18.30
2015,07,22,13,44,18.30
2015,07,22,13,45,18.30
2015,07,22,13,46,18.40
2015,07,22,13,47,18.50
2015,07,22,13,48,18.50
2015,07,22,13,49,18.50
2015,07,22,13,50,18.50
2015,07,22,13,51,18.50
2015,07,22,13,52,18.50
2015,07,22,13,53,18.50
2015,07,22,13,54,18.50
2015,07,22,13,55,18.50
2015,07,22,13,56,18.40
2015,07,22,13,57,18.50
2015,07,22,13,58,18.50
2015,07,22,13,59,18.50
2015,07,22,14,00,18.50
2015,07,22,14,01,18.40
2015,07,22,14,02,18.40
2015,07,22,14,03,18.40
2015,07,22,14,04,18.40
2015,07,22,14,05,18.30
2015,07,22,14,06,18.30
2015,07,22,14,07,18.30
2015,07,22,14,08,18.30
2015,07,22,14,09,18.30
2015,07,22,14,10,18.40
2015,07,22,14,11,18.40
2015,07,22,14,12,18.50
2015,07,22,14,13,18.50
2015,07,22,14,14,18.60
2015,07,22,14,15,18.60
2015,07,22,14,16,18.60
2015,07,22,14,17,18.60
2015,07,22,14,18,18.70
2015,07,22,14,19,18.70
2015,07,22,14,20,18.70
2015,07,22,14,21,18.60
2015,07,22,14,22,18.60
2015,07,22,14,23,18.60
2015,07,22,14,24,18.60
2015,07,22,14,25,18.60
2015,07,22,14,26,18.60
2015,07,22,14,27,18.60
2015,07,22,14,28,18.70
2015,07,22,14,29,18.80
2015,07,22,14,30,18.90
2015,07,22,14,31,18.90
2015,07,22,14,32,18.90
2015,07,22,14,33,18.90
2015,07,22,14,34,18.90
2015,07,22,14,35,18.90
2015,07,22,14,36,19.00
2015,07,22,14,37,19.00
2015,07,22,14,38,19.10
2015,07,22,14,39,19.10
2015,07,22,14,40,19.00
2015,07,22,14,41,18.90
2015,07,22,14,42,18.80
2015,07,22,14,43,18.80
2015,07,22,14,44,18.80
2015,07,22,14,45,18.70
2015,07,22,14,46,18.60
2015,07,22,14,47,18.60
2015,07,22,14,48,18.60
2015,07,22,14,49,18.70
2015,07,22,14,50,18.80
2015,07,22,14,51,18.80
2015,07,22,14,52,18.80
2015,07,22,14,53,18.80
2015,07,22,14,54,18.70
2015,07,22,14,55,18.60
2015,07,22,14,56,18.60
2015,07,22,14,57,18.60
2015,07,22,14,58,18.60
2015,07,22,14,59,18.60
2015,07,22,15,00,18.60
2015,07,22,15,01,18.60
2015,07,22,15,02,18.60
2015,07,22,15,03,18.60
2015,07,22,15,04,18.60
2015,07,22,15,05,18.70
2015,07,22,15,06,18.70
2015,07,22,15,07,18.70
2015,07,22,15,08,18.70
2015,07,22,15,09,18.80
2015,07,22,15,10,18.80
2015,07,22,15,11,18.90
2015,07,22,15,12,19.00
2015,07,22,15,13,19.00
2015,07,22,15,14,19.10
2015,07,22,15,15,19.10
2015,07,22,15,16,19.10
2015,07,22,15,17,19.10
2015,07,22,15,18,19.00
2015,07,22,15,19,19.00
2015,07,22,15,20,19.00
2015,07,22,15,21,18.90
2015,07,22,15,22,18.90
2015,07,22,15,23,18.90
2015,07,22,15,24,18.90
2015,07,22,15,25,18.90
2015,07,22,15,26,19.00
2015,07,22,15,27,19.00
2015,07,22,15,28,19.00
2015,07,22,15,29,18.90
2015,07,22,15,30,18.90
2015,07,22,15,31,18.90
2015,07,22,15,32,18.90
2015,07,22,15,33,18.90
2015,07,22,15,34,18.90
2015,07,22,15,35,18.90
2015,07,22,15,36,18.90
2015,07,22,15,37,18.90
2015,07,22,15,38,19.00
2015,07,22,15,39,19.10
2015,07,22,15,40,19.10
2015,07,22,15,41,19.10
2015,07,22,15,42,19.10
2015,07,22,15,43,19.10
2015,07,22,15,44,19.20
2015,07,22,15,45,19.10
2015,07,22,15,46,19.00
2015,07,22,15,47,19.00
2015,07,22,15,48,18.90
2015,07,22,15,49,18.80
2015,07,22,15,50,18.80
2015,07,22,15,51,18.70
2015,07,22,15,52,18.70
2015,07,22,15,53,18.70
2015,07,22,15,54,18.70
2015,07,22,15,55,18.60
2015,07,22,15,56,18.60
2015,07,22,15,57,18.50
2015,07,22,15,58,18.50
2015,07,22,15,59,18.40
2015,07,22,16,00,18.40
2015,07,22,16,01,18.40
2015,07,22,16,02,18.40
2015,07,22,16,03,18.40
2015,07,22,16,04,18.30
2015,07,22,16,05,18.30
2015,07,22,16,06,18.30
2015,07,22,16,07,18.20
2015,07,22,16,08,18.20
2015,07,22,16,09,18.20
2015,07,22,16,10,18.10
2015,07,22,16,11,18.10
2015,07,22,16,12,18.10
2015,07,22,16,13,18.10
2015,07,22,16,14,18.10
2015,07,22,16,15,18.10
2015,07,22,16,16,18.20
2015,07,22,16,17,18.20
2015,07,22,16,18,18.20
2015,07,22,16,19,18.20
2015,07,22,16,20,18.20
2015,07,22,16,21,18.20
2015,07,22,16,22,18.20
2015,07,22,16,23,18.20
2015,07,22,16,24,18.20
2015,07,22,16,25,18.20
2015,07,22,16,26,18.20
2015,07,22,16,27,18.30
2015,07,22,16,28,18.30
2015,07,22,16,29,18.40
2015,07,22,16,30,18.40
2015,07,22,16,31,18.40
2015,07,22,16,32,18.40
2015,07,22,16,33,18.40
2015,07,22,16,34,18.40
2015,07,22,16,35,18.40
2015,07,22,16,36,18.40
2015,07,22,16,37,18.50
2015,07,22,16,38,18.50
2015,07,22,16,39,18.50
2015,07,22,16,40,18.50
2015,07,22,16,41,18.40
2015,07,22,16,42,18.40
2015,07,22,16,43,18.40
2015,07,22,16,44,18.50
2015,07,22,16,45,18.50
2015,07,22,16,46,18.60
2015,07,22,16,47,18.70
2015,07,22,16,48,18.70
2015,07,22,16,49,18.70
2015,07,22,16,50,18.60
2015,07,22,16,51,18.60
2015,07,22,16,52,18.60
2015,07,22,16,53,18.60
2015,07,22,16,54,18.60
2015,07,22,16,55,18.70
2015,07,22,16,56,18.60
2015,07,22,16,57,18.60
2015,07,22,16,58,18.60
2015,07,22,16,59,18.70
2015,07,22,17,00,18.70
2015,07,22,17,01,18.60
2015,07,22,17,02,18.60
2015,07,22,17,03,18.60
2015,07,22,17,04,18.60
2015,07,22,17,05,18.60
2015,07,22,17,06,18.60
2015,07,22,17,07,18.60
2015,07,22,17,08,18.60
2015,07,22,17,09,18.60
2015,07,22,17,10,18.60
2015,07,22,17,11,18.60
2015,07,22,17,12,18.60
2015,07,22,17,13,18.60
2015,07,22,17,14,18.60
2015,07,22,17,15,18.60
2015,07,22,17,16,18.60
2015,07,22,17,17,18.60
2015,07,22,17,18,18.50
2015,07,22,17,19,18.50
2015,07,22,17,20,18.60
2015,07,22,17,21,18.60
2015,07,22,17,22,18.60
2015,07,22,17,23,18.70
2015,07,22,17,24,18.70
2015,07,22,17,25,18.80
2015,07,22,17,26,18.90
2015,07,22,17,27,18.90
2015,07,22,17,28,18.90
2015,07,22,17,29,18.90
2015,07,22,17,30,18.90
2015,07,22,17,31,18.90
2015,07,22,17,32,18.90
2015,07,22,17,33,18.90
2015,07,22,17,34,18.90
2015,07,22,17,35,18.90
2015,07,22,17,36,18.90
2015,07,22,17,37,18.90
2015,07,22,17,38,18.90
2015,07,22,17,39,18.90
2015,07,22,17,40,18.90
2015,07,22,17,41,18.90
2015,07,22,17,42,18.90
2015,07,22,17,43,18.90
2015,07,22,17,44,18.90
2015,07,22,17,45,18.90
2015,07,22,17,46,18.80
2015,07,22,17,47,18.80
2015,07,22,17,48,18.80
2015,07,22,17,49,18.80
2015,07,22,17,50,18.80
2015,07,22,17,51,18.80
2015,07,22,17,52,18.80
2015,07,22,17,53,18.80
2015,07,22,17,54,18.80
2015,07,22,17,55,18.80
2015,07,22,17,56,18.80
2015,07,22,17,57,18.70
2015,07,22,17,58,18.70
2015,07,22,17,59,18.70
2015,07,22,18,00,18.70
2015,07,22,18,01,18.70
2015,07,22,18,02,18.70
2015,07,22,18,03,18.80
2015,07,22,18,04,18.80
2015,07,22,18,05,18.90
2015,07,22,18,06,18.90
2015,07,22,18,07,18.90
2015,07,22,18,08,18.90
2015,07,22,18,09,18.90
2015,07,22,18,10,18.90
2015,07,22,18,11,18.90
2015,07,22,18,12,18.90
2015,07,22,18,13,18.90
2015,07,22,18,14,19.00
2015,07,22,18,15,19.00
2015,07,22,18,16,19.10
2015,07,22,18,17,19.00